Weather History for KISO - May, 2013

Change the Weather History Date:

Sunday, May 12, 2013

  Actual Average Record
Temperature  
Mean Temperature 68 °F -  
Max Temperature 77 °F 77 °F 93 °F (2000)
Min Temperature 59 °F 57 °F 40 °F (1969)
Cooling Degree Days 3    
Growing Degree Days 18 (Base 50)    
Moisture  
Dew Point 55 °F    
Average Humidity 64    
Maximum Humidity 92    
Minimum Humidity 33    
Precipitation  
Precipitation 0.00 in - - ()
Sea Level Pressure  
Sea Level Pressure 29.87 in    
Wind  
Wind Speed 7 mph (WNW)    
Max Wind Speed 13 mph    
Max Gust Speed 17 mph    
Visibility 10 miles    
Events Rain    
Averages and records for this station are not official NWS values.
T = Trace of Precipitation, MM = Missing Value Source: NWS Daily Summary

Daily Weather History Graph

Daily Weather History Graph

Search for Another Location

Airport or City:

Trip Planner

Search our weather history database for the weather conditions in past years. The results will help you decide how hot, cold, wet, or windy it might be!

Date:

Astronomy

May. 12, 2013 Rise Set
Actual Time 6:08 AM EDT 8:05 PM EDT
Civil Twilight 5:40 AM EDT 8:33 PM EDT
Nautical Twilight 5:06 AM EDT 9:07 PM EDT
Astronomical Twilight 4:30 AM EDT 9:44 PM EDT
Moon 8:03 AM EDT (5/12) 10:30 PM EDT (5/12)
Length of Visible Light 14h 53m
Length of Day
13h 57m
Waxing Crescent, 6% of the Moon is Illuminated
May 12
Waxing Crescent
May 18
First Quarter
May 25
Full
May 31
Last Quarter
Jun 8
New

Hourly Weather History & Observations

Time (EDT) Temp. Dew Point Humidity Pressure Visibility Wind Dir Wind Speed Gust Speed Precip Events Conditions
12:15 AM 72.1 °F 62.6 °F 72% 29.83 in 10.0 mi SSW 9.2 mph - N/A   Scattered Clouds
12:35 AM 71.8 °F 62.6 °F 73% 29.83 in 10.0 mi South 9.2 mph - N/A   Scattered Clouds
12:55 AM 71.8 °F 62.6 °F 73% 29.83 in 10.0 mi SSW 9.2 mph - N/A   Scattered Clouds
1:15 AM 71.8 °F 62.8 °F 73% 29.83 in 10.0 mi SSW 12.7 mph - N/A   Scattered Clouds
1:35 AM 71.6 °F 63.0 °F 74% 29.82 in 10.0 mi SSW 10.4 mph - N/A   Clear
1:55 AM 71.4 °F 63.1 °F 75% 29.81 in 10.0 mi SW 10.4 mph - N/A   Clear
2:15 AM 71.2 °F 63.7 °F 77% 29.82 in 10.0 mi SW 8.1 mph - N/A Rain Light Rain
2:35 AM 70.0 °F 64.4 °F 82% 29.82 in 10.0 mi SW 6.9 mph - N/A   Scattered Clouds
2:55 AM 69.8 °F 64.4 °F 83% 29.81 in 10.0 mi SSW 5.8 mph - N/A   Clear
3:15 AM 69.8 °F 64.4 °F 83% 29.81 in 10.0 mi SSW 8.1 mph - N/A   Clear
3:35 AM 69.8 °F 64.4 °F 83% 29.81 in 10.0 mi SW 5.8 mph - N/A   Clear
3:55 AM 70.0 °F 64.4 °F 82% 29.81 in 10.0 mi SW 4.6 mph - N/A Rain Light Rain
4:15 AM 69.8 °F 64.4 °F 83% 29.81 in 10.0 mi WSW 3.5 mph - N/A Rain Rain
4:35 AM 69.3 °F 64.8 °F 86% 29.82 in 10.0 mi WSW 3.5 mph - N/A   Scattered Clouds
4:55 AM 68.9 °F 64.9 °F 87% 29.82 in 10.0 mi SW 3.5 mph - N/A   Clear
5:35 AM 67.8 °F 64.8 °F 90% 29.81 in 10.0 mi WSW 3.5 mph - N/A   Clear
5:55 AM 67.6 °F 64.9 °F 91% 29.81 in 10.0 mi Calm Calm - N/A   Clear
6:15 AM 67.8 °F 64.8 °F 90% 29.81 in 10.0 mi Calm Calm - N/A   Clear
6:35 AM 67.3 °F 64.6 °F 91% 29.81 in 10.0 mi Calm Calm - N/A   Clear
6:55 AM 66.9 °F 64.4 °F 92% 29.83 in 10.0 mi WNW 3.5 mph - N/A   Scattered Clouds
6:56 AM 68.0 °F 64.4 °F 88% 29.81 in 10.0 mi West 3.5 mph - N/A   Clear
7:56 AM 68.0 °F 60.8 °F 78% 29.84 in 10.0 mi NNW 4.6 mph - N/A   Scattered Clouds
8:56 AM 68.0 °F 57.2 °F 68% 29.86 in 10.0 mi NW 9.2 mph - N/A   Clear
9:56 AM 69.8 °F 53.6 °F 56% 29.88 in 10.0 mi NW 12.7 mph 17.3 mph N/A   Scattered Clouds
10:56 AM 69.8 °F 51.8 °F 53% 29.87 in 10.0 mi NNW 8.1 mph - N/A   Scattered Clouds
11:56 AM 73.4 °F 50.0 °F 44% 29.88 in 10.0 mi NW 9.2 mph - N/A   Clear
12:56 PM 75.2 °F 48.2 °F 38% 29.87 in 10.0 mi WNW 4.6 mph - N/A   Clear
1:56 PM 75.2 °F 48.2 °F 38% 29.87 in 10.0 mi WNW 9.2 mph - N/A   Clear
2:56 PM 77.0 °F 48.2 °F 36% 29.86 in 10.0 mi NNW 9.2 mph - N/A   Clear
3:56 PM 77.0 °F 48.2 °F 36% 29.86 in 10.0 mi West 4.6 mph - N/A   Clear
4:56 PM 77.0 °F 46.4 °F 34% 29.86 in 10.0 mi WNW 9.2 mph - N/A   Clear
5:56 PM 75.2 °F 46.4 °F 36% 29.88 in 10.0 mi NW 8.1 mph - N/A   Clear
6:56 PM 73.4 °F 42.8 °F 33% 29.90 in 10.0 mi WNW 8.1 mph - N/A   Clear
7:56 PM 69.8 °F 42.8 °F 38% 29.93 in 10.0 mi NW 5.8 mph - N/A   Clear
8:56 PM 66.2 °F 42.8 °F 43% 29.96 in 10.0 mi NNW 4.6 mph - N/A   Clear
9:15 PM 65.3 °F 43.7 °F 46% 29.97 in 10.0 mi NNW 3.5 mph - N/A   Clear
9:35 PM 64.9 °F 42.6 °F 44% 29.98 in 10.0 mi NNW 3.5 mph - N/A   Clear
9:55 PM 62.8 °F 44.2 °F 51% 29.99 in 10.0 mi NNW 3.5 mph - N/A   Clear
10:15 PM 62.8 °F 41.9 °F 46% 30.01 in 10.0 mi North 6.9 mph - N/A   Clear
10:35 PM 62.2 °F 41.4 °F 46% 30.01 in 10.0 mi North 6.9 mph - N/A   Clear
10:55 PM 60.4 °F 41.9 °F 50% 30.01 in 10.0 mi North 5.8 mph - N/A   Clear
11:15 PM 59.9 °F 41.9 °F 51% 30.01 in 10.0 mi North 4.6 mph - N/A   Clear
11:35 PM 59.7 °F 42.3 °F 52% 30.01 in 10.0 mi North 6.9 mph - N/A   Clear
11:55 PM 59.5 °F 40.8 °F 50% 30.02 in 10.0 mi North 4.6 mph - N/A   Scattered Clouds